DW2849 Weather Reports


Display with metric or nautical units.
time (UTC)temp
F
wind
direction
speed
MPH
gust
MPH
rain 1hr
in
rain 24hr
in
rain mn
in
humidity
%
barometer
mb
20260504050657 50 225 1.0 2.0 0.00 0.00 0.00 85 1013.6
20260504045957 50 230 1.0 4.0 0.00 0.00 0.00 85 1013.5
20260504045258 50 270 2.0 4.0 0.00 0.00 0.00 85 1013.5
20260504044557 50 258 2.0 3.0 0.00 0.00 0.00 85 1013.3
20260504043706 50 228 1.0 5.0 0.00 0.00 0.00 85 1013.1
20260504043005 49 265 2.0 3.0 0.00 0.00 0.00 85 1013.1
20260504042305 49 240 1.0 2.0 0.00 0.00 0.00 85 1013.0
20260504041606 49 225 1.0 2.0 0.00 0.00 0.00 85 1013.0
20260504040905 49 260 1.0 2.0 0.00 0.00 0.00 85 1012.9
20260504040221 49 225 1.0 3.0 0.00 0.00 0.00 85 1012.9
20260504035505 49 265 2.0 3.0 0.00 0.00 0.00 85 1012.9
20260504034805 49 220 1.0 3.0 0.00 0.00 0.00 85 1012.8
20260504034106 49 228 1.0 3.0 0.00 0.00 0.00 85 1012.7
20260504033212 50 180 1.0 2.0 0.00 0.00 0.00 85 1012.7
20260504032512 50 202 1.0 2.0 0.00 0.00 0.00 85 1012.5
20260504031813 50 180 1.0 2.0 0.00 0.00 0.00 85 1012.5
20260504031113 50 202 1.0 2.0 0.00 0.00 0.00 84 1012.5
20260504030221 51 180 1.0 2.0 0.00 0.00 0.00 84 1012.5
20260504025521 51 228 2.0 2.0 0.00 0.00 0.00 84 1012.3
20260504024821 51 225 1.0 3.0 0.00 0.00 0.00 84 1012.3
20260504024121 51 222 2.0 3.0 0.00 0.00 0.00 83 1012.3
20260504023421 52 232 1.0 2.0 0.00 0.00 0.00 83 1012.2
20260504022721 52 205 2.0 3.0 0.00 0.00 0.00 83 1012.1
20260504021638 52 215 2.0 3.0 0.00 0.00 0.00 82 1012.2
20260504020938 52 225 2.0 3.0 0.00 0.00 0.00 82 1012.3
20260504020238 53 215 2.0 4.0 0.00 0.00 0.00 82 1012.4
20260504015538 53 230 2.0 5.0 0.00 0.00 0.00 81 1012.3
20260504014838 54 282 2.0 4.0 0.00 0.00 0.00 81 1012.4
20260504013947 54 245 2.0 4.0 0.00 0.00 0.00 81 1012.2
20260504013247 54 152 3.0 6.0 0.00 0.00 0.00 80 1012.2
20260504012548 54 240 2.0 4.0 0.00 0.00 0.00 80 1012.2
20260504011847 54 275 3.0 5.0 0.00 0.00 0.00 80 1012.2
20260504011147 54 202 2.0 4.0 0.00 0.00 0.00 80 1012.4
20260504010447 54 186 2.0 4.0 0.00 0.00 0.00 80 1012.5
20260504005747 55 170 2.0 6.0 0.00 0.00 0.00 80 1012.5
20260504005047 55 242 2.0 4.0 0.00 0.00 0.00 80 1012.5
20260504004155 55 218 3.0 5.0 0.00 0.00 0.00 80 1012.5
20260504003457 55 185 2.0 5.0 0.00 0.00 0.00 79 1012.5
20260504002604 56 276 3.0 4.0 0.00 0.00 0.00 78 1012.4
20260504001904 56 210 1.0 6.0 0.00 0.00 0.00 78 1012.4
20260504001205 55 245 3.0 5.0 0.00 0.00 0.00 79 1012.4
20260504000504 56 245 2.0 4.0 0.00 0.00 0.00 79 1012.3
20260503235804 56 262 3.0 4.0 0.00 0.00 0.00 78 1012.3
20260503235105 56 220 2.0 5.0 0.00 0.00 0.00 78 1012.2
20260503234404 56 200 4.0 9.0 0.00 0.00 0.00 77 1012.2
20260503233704 57 256 4.0 6.0 0.00 0.00 0.00 77 1012.2
20260503233004 56 170 2.0 5.0 0.00 0.00 0.00 78 1012.1
20260503232305 57 272 3.0 7.0 0.00 0.00 0.00 76 1012.2
20260503231412 58 198 2.0 6.0 0.00 0.00 0.00 75 1012.2
20260503230712 58 265 3.0 9.0 0.00 0.00 0.00 75 1012.0
20260503230011 59 236 4.0 8.0 0.00 0.00 0.00 73 1011.9
20260503225312 58 218 3.0 8.0 0.00 0.00 0.00 75 1011.9
20260503224612 60 180 3.0 7.0 0.00 0.00 0.00 73 1011.9
20260503223720 60 235 3.0 6.0 0.00 0.00 0.00 72 1011.9
20260503223020 60 240 4.0 5.0 0.00 0.00 0.00 72 1011.9
20260503222320 58 253 3.0 6.0 0.00 0.00 0.00 75 1012.0
20260503221429 58 152 2.0 4.0 0.00 0.00 0.00 76 1012.0
20260503220729 60 180 2.0 5.0 0.00 0.00 0.00 73 1012.1
20260503220033 61 160 3.0 6.0 0.00 0.00 0.00 71 1012.1
20260503215329 60 288 2.0 6.0 0.00 0.00 0.00 74 1012.1
20260503214438 61 212 2.0 5.0 0.00 0.00 0.00 72 1012.1
20260503213737 60 231 3.0 7.0 0.00 0.00 0.00 73 1011.9
20260503213038 58 225 3.0 8.0 0.00 0.00 0.00 75 1012.0
20260503212146 61 262 5.0 8.0 0.00 0.00 0.00 72 1012.0
20260503211446 60 208 4.0 9.0 0.00 0.00 0.00 73 1012.0
20260503210746 58 278 4.0 9.0 0.00 0.00 0.00 75 1012.0
20260503210046 57 217 3.0 5.0 0.00 0.00 0.00 75 1011.9
20260503205347 57 174 2.0 4.0 0.00 0.00 0.00 76 1011.9
20260503204646 57 276 2.0 4.0 0.00 0.00 0.00 77 1011.9
20260503203946 56 184 2.0 7.0 0.00 0.00 0.00 76 1011.9
20260503203246 57 278 4.0 6.0 0.00 0.00 0.00 76 1012.0
20260503202355 58 245 3.0 4.0 0.00 0.00 0.00 74 1012.1
20260503201656 57 163 2.0 4.0 0.00 0.00 0.00 76 1012.0
20260503200955 57 225 2.0 6.0 0.00 0.00 0.00 76 1012.1
20260503200255 56 259 3.0 6.0 0.00 0.00 0.00 76 1012.1
20260503195403 56 217 3.0 4.0 0.00 0.00 0.00 76 1012.1
20260503194703 56 200 2.0 4.0 0.00 0.00 0.00 75 1012.2
20260503194007 56 262 2.0 5.0 0.00 0.00 0.00 76 1012.2
20260503193304 55 160 2.0 4.0 0.00 0.00 0.00 77 1012.4
20260503192603 55 225 3.0 5.0 0.00 0.00 0.00 78 1012.3
20260503191904 55 264 2.0 5.0 0.00 0.00 0.00 78 1012.3
20260503191203 55 22 1.0 5.0 0.00 0.00 0.00 78 1012.3
20260503190313 55 264 3.0 6.0 0.00 0.00 0.00 78 1012.1
20260503185421 56 214 3.0 6.0 0.00 0.00 0.00 77 1012.2
20260503184721 56 264 2.0 4.0 0.00 0.00 0.00 75 1012.1
20260503184021 56 222 3.0 5.0 0.00 0.00 0.00 76 1012.1
20260503183321 55 183 3.0 5.0 0.00 0.00 0.00 77 1012.1
20260503182621 55 253 1.0 5.0 0.00 0.00 0.00 77 1012.1
20260503181921 55 222 3.0 5.0 0.00 0.00 0.00 78 1012.1
20260503181221 54 191 3.0 5.0 0.00 0.00 0.00 78 1012.1
20260503180330 54 228 3.0 4.0 0.00 0.00 0.00 79 1012.2
20260503175630 53 267 2.0 3.0 0.00 0.00 0.00 80 1012.2
20260503174933 53 211 2.0 4.0 0.00 0.00 0.00 80 1012.2
20260503174230 53 253 2.0 4.0 0.00 0.00 0.00 79 1012.1
20260503173530 53 248 1.0 4.0 0.00 0.00 0.00 79 1012.0
20260503172830 53 231 1.0 4.0 0.00 0.00 0.00 80 1012.0
20260503172130 52 352 2.0 3.0 0.00 0.00 0.00 82 1011.8
20260503171430 52 239 1.0 3.0 0.00 0.00 0.00 82 1011.9
20260503170537 51 154 1.0 4.0 0.00 0.00 0.00 82 1011.9
20260503150612 49 225 0.0 1.0 0.00 0.00 0.00 86 1011.2
20260503140120 49 215 1.0 2.0 0.00 0.00 0.00 87 1010.3
20260503131029 49 217 1.0 2.0 0.00 0.00 0.00 87 1009.7
20260503130329 49 230 1.0 2.0 0.00 0.00 0.00 87 1009.7
20260503110404 49 120 1.0 2.0 0.00 0.00 0.00 86 1009.6
20260503081348 49 225 0.0 2.0 0.00 0.00 0.00 86 1010.5
20260503080648 50 304 0.0 2.0 0.00 0.00 0.00 86 1010.4
20260503072258 50 270 1.0 3.0 0.00 0.00 0.00 86 1010.5
20260503071556 50 287 1.0 3.0 0.00 0.00 0.00 86 1010.6